Ouranos — SVA7065 — position and weather

sailwx.info

Track history (hours):
 
Tides and Currents Weather Stations Pressure Air Temp Water Temp Dewpoint Dewpoint Depression Visibility Wind Speed Wind Dir Waves Ship Positions

Ouranos

Last reported at 2018-Jul-20 10:30 UTC. Time now 2018-Jul-20 10:43 UTC.
Position N 37°09' E 025°18'.

Length 50 m; draft 3.2 m.

Type: Pleasure craft. MMSI: 241460000.

Date/timePositionNaut miles runAvg speedWind from/ knotsBaromVisibWave heightAir tempDewpointWater temp
2018-Jul-20 10:30N 37°09' E 025°18'4 8.0
2018-Jul-20 10:00N 37°08' E 025°14'0 0.0
2018-Jul-20 09:31N 37°08' E 025°14'0 0.0
2018-Jul-20 09:00N 37°08' E 025°14'0 0.0
2018-Jul-20 08:30N 37°08' E 025°14'0 0.0
2018-Jul-20 04:31N 37°08' E 025°14'0 0.0
2018-Jul-20 04:30N 37°08' E 025°14'0 0.0
2018-Jul-20 03:59N 37°08' E 025°14'0 0.1
2018-Jul-20 03:28N 37°08' E 025°14'2 4.8
2018-Jul-20 03:00N 37°10' E 025°15'715.0
2018-Jul-20 02:30N 37°13' E 025°24'815.1
2018-Jul-20 02:00N 37°16' E 025°33'714.8
2018-Jul-20 01:30N 37°19' E 025°41'815.3
2018-Jul-20 01:00N 37°23' E 025°50'  
2018-Jul-16 04:01N 37°02' E 025°05'0 4.1
2018-Jul-16 04:00N 37°02' E 025°05'0 0.2
2018-Jul-16 03:28N 37°02' E 025°05'0 0.0
2018-Jul-16 02:55N 37°02' E 025°05'0 0.0
2018-Jul-16 02:28N 37°02' E 025°05'0 0.0
2018-Jul-16 01:55N 37°02' E 025°05'0 0.0
2018-Jul-16 01:28N 37°02' E 025°05'0 0.0
2018-Jul-16 00:55N 37°02' E 025°05'0 0.0
2018-Jul-16 00:28N 37°02' E 025°05'0 0.1
2018-Jul-15 23:52N 37°02' E 025°05'0 0.0
2018-Jul-15 23:28N 37°02' E 025°05'0 0.0
2018-Jul-15 22:58N 37°02' E 025°05'0 0.1
2018-Jul-15 22:28N 37°02' E 025°05'0 0.1
2018-Jul-15 21:58N 37°02' E 025°05'0 0.0
2018-Jul-15 21:28N 37°02' E 025°05'0 0.0
2018-Jul-15 20:58N 37°02' E 025°05'0 0.0
2018-Jul-15 20:28N 37°02' E 025°05'0 0.0
2018-Jul-15 19:58N 37°02' E 025°05'0 0.0
2018-Jul-15 19:25N 37°02' E 025°05'0 0.0
2018-Jul-15 18:58N 37°02' E 025°05'0 0.0
2018-Jul-15 18:25N 37°02' E 025°05'0 0.0
2018-Jul-15 17:55N 37°02' E 025°05'0 0.1
2018-Jul-15 17:28N 37°02' E 025°05'0 0.0
2018-Jul-15 16:58N 37°02' E 025°05'0 0.0
2018-Jul-15 16:28N 37°02' E 025°05'0 0.0
2018-Jul-15 15:58N 37°02' E 025°05'0 0.0
2018-Jul-15 15:25N 37°02' E 025°05'0 0.0
2018-Jul-15 14:55N 37°02' E 025°05'0 0.0
2018-Jul-15 14:25N 37°02' E 025°05'0 0.0
2018-Jul-15 13:55N 37°02' E 025°05'0 0.1
2018-Jul-15 13:28N 37°02' E 025°05'0 0.0
2018-Jul-15 12:58N 37°02' E 025°05'0 0.0
2018-Jul-15 12:28N 37°02' E 025°05'0 0.0
2018-Jul-15 11:58N 37°02' E 025°05'0 0.0
2018-Jul-15 11:28N 37°02' E 025°05'0 0.2
2018-Jul-15 11:00N 37°02' E 025°05'78 1.6
2018-Jul-13 09:41N 37°46' E 023°45'315.3
2018-Jul-13 09:30N 37°49' E 023°43'714.8
2018-Jul-13 09:00N 37°56' E 023°41'0 0.7
2018-Jul-13 08:28N 37°56' E 023°41'0 0.0
2018-Jul-13 07:58N 37°56' E 023°41'0 0.0
2018-Jul-13 07:28N 37°56' E 023°41'0 0.0
2018-Jul-13 06:58N 37°56' E 023°41'0 0.0
2018-Jul-13 06:28N 37°56' E 023°41'0 0.0
2018-Jul-13 05:58N 37°56' E 023°41'0 0.0
2018-Jul-13 05:28N 37°56' E 023°41'0 0.0
2018-Jul-13 04:58N 37°56' E 023°41'0 0.0
2018-Jul-13 04:28N 37°56' E 023°41'0 0.0
2018-Jul-13 03:58N 37°56' E 023°41'0 0.0
2018-Jul-13 03:28N 37°56' E 023°41'0 0.0
2018-Jul-13 02:58N 37°56' E 023°41'0 0.0
2018-Jul-13 02:28N 37°56' E 023°41'0 0.0
2018-Jul-13 01:58N 37°56' E 023°41'0 0.0
2018-Jul-13 01:28N 37°56' E 023°41'0 0.0
2018-Jul-13 00:58N 37°56' E 023°41'0 0.0
2018-Jul-13 00:28N 37°56' E 023°41'0 0.0
2018-Jul-12 23:58N 37°56' E 023°41'0 0.0
2018-Jul-12 23:28N 37°56' E 023°41'0 0.0
2018-Jul-12 22:58N 37°56' E 023°41'0 0.0
2018-Jul-12 22:22N 37°56' E 023°41'0 0.0
2018-Jul-12 21:58N 37°56' E 023°41'0 0.0
2018-Jul-12 21:28N 37°56' E 023°41'0 0.0
2018-Jul-12 20:58N 37°56' E 023°41'0 0.0
2018-Jul-12 20:28N 37°56' E 023°41'0 0.0
2018-Jul-12 19:58N 37°56' E 023°41'0 0.0
2018-Jul-12 19:28N 37°56' E 023°41'0 0.0
2018-Jul-12 18:58N 37°56' E 023°41'0 0.0
2018-Jul-12 18:28N 37°56' E 023°41'0 0.0
2018-Jul-12 17:58N 37°56' E 023°41'0 0.0
2018-Jul-12 17:28N 37°56' E 023°41'0 0.0
2018-Jul-12 16:58N 37°56' E 023°41'0 0.0
2018-Jul-12 16:28N 37°56' E 023°41'0 0.0
2018-Jul-12 15:58N 37°56' E 023°41'0 0.0
2018-Jul-12 15:28N 37°56' E 023°41'0 0.0
2018-Jul-12 14:58N 37°56' E 023°41'0 0.0
2018-Jul-12 14:28N 37°56' E 023°41'0 0.0
2018-Jul-12 13:58N 37°56' E 023°41'0 0.0
2018-Jul-12 13:28N 37°56' E 023°41'0 0.0
2018-Jul-12 12:58N 37°56' E 023°41'0 0.0
2018-Jul-12 12:28N 37°56' E 023°41'0 0.0
2018-Jul-12 11:58N 37°56' E 023°41'0 0.0
2018-Jul-12 11:28N 37°56' E 023°41'0 0.0
2018-Jul-12 10:58N 37°56' E 023°41'0 0.0
2018-Jul-12 10:28N 37°56' E 023°41'0 0.0
2018-Jul-12 09:58N 37°56' E 023°41'0 0.0
2018-Jul-12 09:28N 37°56' E 023°41'0 0.0
2018-Jul-12 08:58N 37°56' E 023°41'0 0.0
2018-Jul-12 08:28N 37°56' E 023°41'0 0.0
2018-Jul-12 07:58N 37°56' E 023°41'0 0.0
2018-Jul-12 07:25N 37°56' E 023°41'0 0.0
2018-Jul-12 06:58N 37°56' E 023°41'0 0.0
2018-Jul-12 06:28N 37°56' E 023°41'0 0.0
2018-Jul-12 06:00N 37°56' E 023°41'0 0.1
2018-Jul-12 05:30N 37°56' E 023°41'2 4.0
2018-Jul-12 05:00N 37°54' E 023°41'714.9
2018-Jul-12 04:31N 37°47' E 023°43'54 9.6
2018-Jul-11 22:52N 38°29' E 024°25'616.0
2018-Jul-11 22:30N 38°34' E 024°21'  
Track history (hours):
 
Tides and Currents Weather Stations Pressure Air Temp Water Temp Dewpoint Dewpoint Depression Visibility Wind Speed Wind Dir Waves Ship Positions

Ouranos

Last reported at 2018-Jul-20 10:30 UTC. Time now 2018-Jul-20 10:43 UTC.
Position N 37°09' E 025°18'.

Length 50 m; draft 3.2 m.

Type: Pleasure craft. MMSI: 241460000.

Date/timePositionNaut miles runAvg speedWind from/ knotsBaromVisibWave heightAir tempDewpointWater temp
2018-Jul-20 10:30N 37°09' E 025°18'4 8.0
2018-Jul-20 10:00N 37°08' E 025°14'0 0.0
2018-Jul-20 09:31N 37°08' E 025°14'0 0.0
2018-Jul-20 09:00N 37°08' E 025°14'0 0.0
2018-Jul-20 08:30N 37°08' E 025°14'0 0.0
2018-Jul-20 04:31N 37°08' E 025°14'0 0.0
2018-Jul-20 04:30N 37°08' E 025°14'0 0.0
2018-Jul-20 03:59N 37°08' E 025°14'0 0.1
2018-Jul-20 03:28N 37°08' E 025°14'2 4.8
2018-Jul-20 03:00N 37°10' E 025°15'715.0
2018-Jul-20 02:30N 37°13' E 025°24'815.1
2018-Jul-20 02:00N 37°16' E 025°33'714.8
2018-Jul-20 01:30N 37°19' E 025°41'815.3
2018-Jul-20 01:00N 37°23' E 025°50'  
2018-Jul-16 04:01N 37°02' E 025°05'0 4.1
2018-Jul-16 04:00N 37°02' E 025°05'0 0.2
2018-Jul-16 03:28N 37°02' E 025°05'0 0.0
2018-Jul-16 02:55N 37°02' E 025°05'0 0.0
2018-Jul-16 02:28N 37°02' E 025°05'0 0.0
2018-Jul-16 01:55N 37°02' E 025°05'0 0.0
2018-Jul-16 01:28N 37°02' E 025°05'0 0.0
2018-Jul-16 00:55N 37°02' E 025°05'0 0.0
2018-Jul-16 00:28N 37°02' E 025°05'0 0.1
2018-Jul-15 23:52N 37°02' E 025°05'0 0.0
2018-Jul-15 23:28N 37°02' E 025°05'0 0.0
2018-Jul-15 22:58N 37°02' E 025°05'0 0.1
2018-Jul-15 22:28N 37°02' E 025°05'0 0.1
2018-Jul-15 21:58N 37°02' E 025°05'0 0.0
2018-Jul-15 21:28N 37°02' E 025°05'0 0.0
2018-Jul-15 20:58N 37°02' E 025°05'0 0.0
2018-Jul-15 20:28N 37°02' E 025°05'0 0.0
2018-Jul-15 19:58N 37°02' E 025°05'0 0.0
2018-Jul-15 19:25N 37°02' E 025°05'0 0.0
2018-Jul-15 18:58N 37°02' E 025°05'0 0.0
2018-Jul-15 18:25N 37°02' E 025°05'0 0.0
2018-Jul-15 17:55N 37°02' E 025°05'0 0.1
2018-Jul-15 17:28N 37°02' E 025°05'0 0.0
2018-Jul-15 16:58N 37°02' E 025°05'0 0.0
2018-Jul-15 16:28N 37°02' E 025°05'0 0.0
2018-Jul-15 15:58N 37°02' E 025°05'0 0.0
2018-Jul-15 15:25N 37°02' E 025°05'0 0.0
2018-Jul-15 14:55N 37°02' E 025°05'0 0.0
2018-Jul-15 14:25N 37°02' E 025°05'0 0.0
2018-Jul-15 13:55N 37°02' E 025°05'0 0.1
2018-Jul-15 13:28N 37°02' E 025°05'0 0.0
2018-Jul-15 12:58N 37°02' E 025°05'0 0.0
2018-Jul-15 12:28N 37°02' E 025°05'0 0.0
2018-Jul-15 11:58N 37°02' E 025°05'0 0.0
2018-Jul-15 11:28N 37°02' E 025°05'0 0.2
2018-Jul-15 11:00N 37°02' E 025°05'78 1.6
2018-Jul-13 09:41N 37°46' E 023°45'315.3
2018-Jul-13 09:30N 37°49' E 023°43'714.8
2018-Jul-13 09:00N 37°56' E 023°41'0 0.7
2018-Jul-13 08:28N 37°56' E 023°41'0 0.0
2018-Jul-13 07:58N 37°56' E 023°41'0 0.0
2018-Jul-13 07:28N 37°56' E 023°41'0 0.0
2018-Jul-13 06:58N 37°56' E 023°41'0 0.0
2018-Jul-13 06:28N 37°56' E 023°41'0 0.0
2018-Jul-13 05:58N 37°56' E 023°41'0 0.0
2018-Jul-13 05:28N 37°56' E 023°41'0 0.0
2018-Jul-13 04:58N 37°56' E 023°41'0 0.0
2018-Jul-13 04:28N 37°56' E 023°41'0 0.0
2018-Jul-13 03:58N 37°56' E 023°41'0 0.0
2018-Jul-13 03:28N 37°56' E 023°41'0 0.0
2018-Jul-13 02:58N 37°56' E 023°41'0 0.0
2018-Jul-13 02:28N 37°56' E 023°41'0 0.0
2018-Jul-13 01:58N 37°56' E 023°41'0 0.0
2018-Jul-13 01:28N 37°56' E 023°41'0 0.0
2018-Jul-13 00:58N 37°56' E 023°41'0 0.0
2018-Jul-13 00:28N 37°56' E 023°41'0 0.0
2018-Jul-12 23:58N 37°56' E 023°41'0 0.0
2018-Jul-12 23:28N 37°56' E 023°41'0 0.0
2018-Jul-12 22:58N 37°56' E 023°41'0 0.0
2018-Jul-12 22:22N 37°56' E 023°41'0 0.0
2018-Jul-12 21:58N 37°56' E 023°41'0 0.0
2018-Jul-12 21:28N 37°56' E 023°41'0 0.0
2018-Jul-12 20:58N 37°56' E 023°41'0 0.0
2018-Jul-12 20:28N 37°56' E 023°41'0 0.0
2018-Jul-12 19:58N 37°56' E 023°41'0 0.0
2018-Jul-12 19:28N 37°56' E 023°41'0 0.0
2018-Jul-12 18:58N 37°56' E 023°41'0 0.0
2018-Jul-12 18:28N 37°56' E 023°41'0 0.0
2018-Jul-12 17:58N 37°56' E 023°41'0 0.0
2018-Jul-12 17:28N 37°56' E 023°41'0 0.0
2018-Jul-12 16:58N 37°56' E 023°41'0 0.0
2018-Jul-12 16:28N 37°56' E 023°41'0 0.0
2018-Jul-12 15:58N 37°56' E 023°41'0 0.0
2018-Jul-12 15:28N 37°56' E 023°41'0 0.0
2018-Jul-12 14:58N 37°56' E 023°41'0 0.0
2018-Jul-12 14:28N 37°56' E 023°41'0 0.0
2018-Jul-12 13:58N 37°56' E 023°41'0 0.0
2018-Jul-12 13:28N 37°56' E 023°41'0 0.0
2018-Jul-12 12:58N 37°56' E 023°41'0 0.0
2018-Jul-12 12:28N 37°56' E 023°41'0 0.0
2018-Jul-12 11:58N 37°56' E 023°41'0 0.0
2018-Jul-12 11:28N 37°56' E 023°41'0 0.0
2018-Jul-12 10:58N 37°56' E 023°41'0 0.0
2018-Jul-12 10:28N 37°56' E 023°41'0 0.0
2018-Jul-12 09:58N 37°56' E 023°41'0 0.0
2018-Jul-12 09:28N 37°56' E 023°41'0 0.0
2018-Jul-12 08:58N 37°56' E 023°41'0 0.0
2018-Jul-12 08:28N 37°56' E 023°41'0 0.0
2018-Jul-12 07:58N 37°56' E 023°41'0 0.0
2018-Jul-12 07:25N 37°56' E 023°41'0 0.0
2018-Jul-12 06:58N 37°56' E 023°41'0 0.0
2018-Jul-12 06:28N 37°56' E 023°41'0 0.0
2018-Jul-12 06:00N 37°56' E 023°41'0 0.1
2018-Jul-12 05:30N 37°56' E 023°41'2 4.0
2018-Jul-12 05:00N 37°54' E 023°41'714.9
2018-Jul-12 04:31N 37°47' E 023°43'54 9.6
2018-Jul-11 22:52N 38°29' E 024°25'616.0
2018-Jul-11 22:30N 38°34' E 024°21'  

Dump ship's entire track history